This demonstration page uses our WeatherBlox Daily Observations layout. Learn more.

Left ArrowRight Arrow

39.01783, -85.05884

Hourly Observations for December 9, 2017

Temp ( °F °C ) Dew Point ( °F °C ) Humidity (%) Winds ( mph kmh ) Pressure ( in mb ) Visibility ( mi km ) Precip ( " mm )
12:52 am 00:52 Partly Cloudy 22 -5.6 12 -11.1 66 66 SW 5 7 29.95 1014 10 16 0.00 0.00
1:52 am 01:52 Clear 22 -5.6 13 -10.6 68 68 SSW 5 7 29.93 1014 10 16 0.00 0.00
2:52 am 02:52 Clear 20 -6.7 13 -10.6 74 74 SW 7 11 29.92 1013 10 16 0.00 0.00
3:52 am 03:52 Clear 19 -7.2 14 -10 81 81 S 9 15 29.91 1013 10 16 0.00 0.00
4:52 am 04:52 Clear 20 -6.7 13 -10.6 74 74 S 9 15 29.87 1012 10 16 0.00 0.00
5:52 am 05:52 Clear 18 -7.8 13 -10.6 81 81 S 7 11 29.85 1011 10 16 0.00 0.00
6:52 am 06:52 Mostly Cloudy 21 -6.1 15 -9.4 78 78 S 10 17 29.86 1011 10 16 0.00 0.00
7:52 am 07:52 Mostly Cloudy 23 -5 15 -9.4 72 72 SSW 10 17 29.84 1011 10 16 0.00 0.00
8:52 am 08:52 Cloudy 24 -4.4 15 -9.4 68 68 S 12 19 29.83 1010 10 16 0.00 0.00
9:52 am 09:52 Cloudy 26 -3.3 17 -8.3 69 69 S 12 19 29.80 1009 10 16 0.00 0.00
10:52 am 10:52 Mostly Cloudy 28 -2.2 18 -7.8 66 66 SSW 9 15 29.80 1009 10 16 0.00 0.00
11:52 am 11:52 Cloudy 28 -2.2 18 -7.8 66 66 SW 7 11 29.80 1009 10 16 0.00 0.00
12:07 pm 12:07 Cloudy with Light Snow 29 -1.7 19 -7.2 66 66 WSW 10 17 29.83 1010 3 4 0.00 0.03
12:41 pm 12:41 Cloudy with Light Snow 28 -2.2 21 -6.1 75 75 SW 9 15 29.83 1010 7 11 0.00 0.03
12:52 pm 12:52 Cloudy with Light Snow 28 -2.2 22 -5.6 78 78 WSW 10 17 29.79 1009 2 2 0.00 0.03
1:02 pm 13:02 Cloudy with Light Snow 27 -2.8 24 -4.4 89 89 WSW 9 15 29.83 1010 2 3 0.00 0.03
1:21 pm 13:21 Cloudy with Light Snow 27 -2.8 23 -5 85 85 WSW 8 13 29.83 1010 7 11 0.00 0.03
1:52 pm 13:52 Cloudy with Light Snow 27 -2.8 24 -4.4 89 89 WSW 10 17 29.79 1009 5 8 0.00 0.03
2:52 pm 14:52 Cloudy with Light Snow 28 -2.2 24 -4.4 85 85 WSW 9 15 29.81 1010 4 6 0.00 0.03
3:05 pm 15:05 Cloudy with Light Snow 28 -2.2 24 -4.4 85 85 WSW 9 15 29.85 1011 3 4 0.00 0.03
3:16 pm 15:16 Cloudy with Light Snow 28 -2.2 24 -4.4 85 85 WSW 9 15 29.85 1011 1 2 0.00 0.03
3:33 pm 15:33 Cloudy with Light Snow 28 -2.2 25 -3.9 88 88 WSW 9 15 29.85 1011 3 5 0.00 0.03
3:52 pm 15:52 Cloudy with Mist and Fog 28 -2.2 25 -3.9 88 88 WSW 10 17 29.84 1011 5 8 0.00 0.03
4:17 pm 16:17 Cloudy with Light Snow 28 -2.2 25 -3.9 88 88 WSW 12 19 29.88 1012 2 3 0.00 0.03
4:28 pm 16:28 Cloudy with Light Snow 28 -2.2 26 -3.3 92 92 WSW 8 13 29.88 1012 1 2 0.00 0.03
4:52 pm 16:52 Cloudy with Light Snow 28 -2.2 26 -3.3 92 92 WSW 8 13 29.88 1012 2 3 0.01 0.25
5:07 pm 17:07 Cloudy with Light Snow 28 -2.2 26 -3.3 92 92 WSW 7 11 29.94 1014 3 5 0.00 0.03
5:15 pm 17:15 Cloudy with Light Snow 28 -2.2 27 -2.8 96 96 WSW 8 13 29.94 1014 1 2 0.00 0.03
5:22 pm 17:22 Cloudy with Light Snow 28 -2.2 27 -2.8 96 96 WSW 7 11 29.94 1014 1 1 0.00 0.03
5:52 pm 17:52 Cloudy with Light Snow 28 -2.2 26 -3.3 92 92 W 10 17 29.91 1013 3 5 0.00 0.03
6:52 pm 18:52 Cloudy 28 -2.2 23 -5 81 81 W 13 20 29.94 1014 10 16 0.00 0.03
7:52 pm 19:52 Cloudy 28 -2.2 23 -5 81 81 W 17 28 29.97 1015 10 16 0.00 0.03
8:12 pm 20:12 Cloudy 28 -2.2 23 -5 81 81 W 16 26 30.00 1016 10 16 0.00 0.00
8:52 pm 20:52 Cloudy 28 -2.2 23 -5 81 81 W 14 22 30.00 1016 10 16 0.00 0.00
9:52 pm 21:52 Cloudy 29 -1.7 23 -5 78 78 W 14 22 30.02 1017 10 16 0.00 0.00
10:52 pm 22:52 Cloudy 29 -1.7 22 -5.6 75 75 WNW 23 37 30.05 1018 10 16 0.00 0.00
11:52 pm 23:52 Cloudy 29 -1.7 22 -5.6 75 75 WNW 18 30 30.07 1018 10 16 0.00 0.00

Powered by AerisWeather